International Virtual Aviation Organisation

Russian Federation and Kazakhstan MCD

 

Карточка аэропорта USHH

Внимание!
Информация на этой странице в стадии наполнения.
Если вы не увидели какой-то информации, или заметили неточность - пожалуйста сообщите нам!
Спасибо!
Команда RU-STAFF
Название аэропортаХанты-Мансийск
Название аэропорта (англ.)Khanty-Mansiysk
Превышение141 ft. (43 m.)
Координаты61°1.7039999999999', 69°5.1599999999999'
Высота перехода800m
Эшелон переходаFL050
Коды ответчика5150-5177
Зона ОрВДТюмень РПИ (USTV)
Данные METARUSHH 270330Z 14002MPS 8000 -SN BKN016 M11/M12 Q1034 R06/490342 TEMPO 2000 SN BKN004
Проноз погоды (TAF)USHH 270143Z 2703/2803 14003G10MPS 6000 FEW005 BKN016 TEMPO 2703/2715 3100 -SHSN BR SCT004 BKN011CB TEMPO 2715/2724 -SHSN SCT003 BKN016CB
NOTAMshow/hide NOTAM
AWOS   TABLE

Информация о ВПП

ВПП Длина ВПП (м.) Покрытие Курс ВПП Частота ILS
062800Асфальтобетон58111.9
242800Асфальтобетон238110.1

Диспетчерские позиции

Позывной Наименование органа УВД Частота
USHH_R_APPХантым-Круг120.4
USHH_TWRХантым-Вышка118.1



Спутниковое изображение